This is the latest recevied weather packets stored in our database for station/object WA1RYQ. If no packets are shown the sender has not sent any weather packets the latest 10 day(s).
| Time | Temp. | Humidity | Pressure | Rain* | Wind** | Luminosity | Snow |
|---|---|---|---|---|---|---|---|
| 1777611605 | 24.44° C | 85% | 1012.6 hPa | 0 mm | - | 0 W/m² | - |
| 1777611322 | 24.44° C | 85% | 1012.7 hPa | 0 mm | - | 0 W/m² | - |
| 1777609541 | 24.44° C | 85% | 1012.8 hPa | 0 mm | - | 0 W/m² | - |
| 1777608053 | 24.44° C | 84% | 1012.9 hPa | 0 mm | - | 0 W/m² | - |
| 1777605923 | 24.44° C | 84% | 1012.7 hPa | 0 mm | - | 0 W/m² | - |
| 1777604707 | 24.44° C | 83% | 1012.8 hPa | 0 mm | - | 0 W/m² | - |
| 1777602911 | 24.44° C | 83% | 1012.4 hPa | 0 mm | - | 0 W/m² | - |
| 1777601115 | 24.44° C | 83% | 1012.4 hPa | 0 mm | - | 0 W/m² | - |
| 1777600843 | 24.44° C | 83% | 1012.3 hPa | 0 mm | - | 0 W/m² | - |
| 1777600553 | 24.44° C | 83% | 1012.3 hPa | 0 mm | - | 0 W/m² | - |
| 1777597234 | 25° C | 83% | 1012 hPa | 0 mm | - | 0 W/m² | - |
| 1777594239 | 25° C | 80% | 1012 hPa | 0 mm | - | 0 W/m² | - |
| 1777593962 | 25° C | 79% | 1011.8 hPa | 0 mm | - | 0 W/m² | - |
| 1777593900 | 25° C | 79% | 1011.8 hPa | 0 mm | - | 0 W/m² | - |
| 1777593615 | 25° C | 79% | 1011.7 hPa | 0 mm | - | 5 W/m² | - |
| 1777590939 | 25.56° C | 77% | 1011.2 hPa | 0 mm | - | 42 W/m² | - |
| 1777590003 | 26.11° C | 78% | 1011.2 hPa | 0 mm | - | 51 W/m² | - |
| 1777587642 | 27.22° C | 75% | 1011 hPa | 0 mm | - | 162 W/m² | - |
| 1777587358 | 27.22° C | 75% | 1011 hPa | 0 mm | - | 167 W/m² | - |
| 1777583741 | 27.78° C | 75% | 1011.5 hPa | 0 mm | - | 513 W/m² | - |
| 1777582219 | 27.22° C | 78% | 1011.6 hPa | 0 mm | - | 652 W/m² | - |
| 1777581943 | 27.22° C | 77% | 1011.8 hPa | 0 mm | - | 279 W/m² | - |
| 1777581316 | 27.78° C | 77% | 1011.8 hPa | 0 mm | - | 819 W/m² | - |
| 1777577752 | 27.78° C | 76% | 1012.1 hPa | 0 mm | - | 397 W/m² | - |
| 1777577134 | 28.33° C | 75% | 1012.2 hPa | 0 mm | - | 916 W/m² | - |
* Rain latest hour (hover to see other rain measurements)
** Current wind speed in m/s (hover to see current wind gust speed)